Location: Casteau
(50.5142°N, 4.0161°E)
Time: 03:31:25
(UTC+00:00)

Transit 2A - Pass Details

Date: 01 August 2021
Orbit: 594 x 964 km, 66.7° (Epoch: 21 September)

Event Time Altitude Azimuth Distance (km) Brightness Sun altitude
Rises 10:26:15 0° 308° (NW) 3,024 8.7 53.3°
Reaches altitude 10° 10:29:52 10° 338° (NNW) 2,189 8.1 53.7°
Maximum altitude 10:32:07 13° 5° (N) 2,050 8.1 53.8°
Drops below altitude 10° 10:34:27 10° 31° (NNE) 2,298 8.4 54.0°
Sets 10:38:27 0° 59° (ENE) 3,324 9.3 54.4°
